Regional Weather Roundup
Issued by NWS

Home | Current Version | Previous Version | Graphics & Text | Print | Product List | Glossary On
Versions: 1 2 3 4 5 6 7 8 9 10 11 12 13 14 15 16 17 18 19 20 21 22 23 24 25 26 27 28 29 30 31 32 33 34 35 36 37 38 39 40 41 42 43 44 45 46 47 48
000
ASUS45 KSLC 301610
RWRUT

UTAH REGIONAL WEATHER ROUNDUP
NATIONAL WEATHER SERVICE SALT LAKE CITY UT
1000 AM MDT SAT MAY 30 2015

UTZ001>011-023>025-301700-

NORTHERN UTAH

CITY           SKY/WX    TMP DP  RH WIND       PRES   REMARKS
BRIGHAM CITY   SUNNY     64  48  56 CALM      30.14R
HILL AFB       SUNNY     64  44  47 E10       30.14S
LOGAN          SUNNY     59  48  67 NW5       30.15R
OGDEN          SUNNY     68  43  40 CALM      30.12S
PROVO AIRPORT  PTSUNNY   64  46  52 CALM      30.16R
SALT LAKE CITY PTSUNNY   70  43  37 SE10      30.11R
VERNAL         SUNNY     61  44  53 S6        30.26S
WENDOVER       MOSUNNY   66  46  48 CALM      30.11R
HEBER CITY     MOSUNNY   59  41  51 CALM      30.22F
WEST JORDAN    MOSUNNY   70  46  43 S9        30.14R

$$

UTZ012>022-026-027-301700-

SOUTHERN/CENTRAL UTAH

CITY           SKY/WX    TMP DP  RH WIND       PRES   REMARKS
BLANDING       SUNNY     69  35  28 SE5       30.34S
BRYCE CANYON   SUNNY     63  38  39 SE10      30.36S
CEDAR CITY     SUNNY     70  44  39 SW6       30.20S
DELTA          PTSUNNY   67  43  41 S7        30.16S
HANKSVILLE     MOSUNNY   70  36  28 CALM      30.23S
MILFORD        SUNNY     69  46  43 S14       30.16S
MOAB/CYNLANDS  SUNNY     70  38  31 CALM      30.20R
PRICE          MOSUNNY   66  38  35 SE7       30.26F
ST GEORGE      MOSUNNY   77  41  27 NW5       30.09S

$$

REGIONAL REPORTS     COLORADO/ARIZONA

CITY           SKY/WX    TMP DP  RH WIND       PRES   REMARKS
CRAIG, CO      SUNNY     60  42  51 E9        30.30S
GRAND JUNCTION SUNNY     65  41  41 SE9       30.24S
RIFLE          SUNNY     60  40  47 CALM      30.29F
MONTROSE       SUNNY     66  40  38 N6        30.30F
CORTEZ         SUNNY     67  34  29 CALM      30.27F
PAGE, AZ       SUNNY     73  43  33 N6        30.18S
GRAND CANYON   SUNNY     72  20  14 E5        30.30R
KINGMAN        SUNNY     85  20   9 VRB3      30.08R
FLAGSTAFF      SUNNY     70  36  28 MISG      30.33R

$$

REGIONAL REPORTS    NEVADA/IDAHO/WYOMING

CITY           SKY/WX    TMP DP  RH WIND       PRES   REMARKS
LAS VEGAS, NV  MOSUNNY   87  24  10 S5        29.95S
ELY            MOSUNNY   69  39  33 S14       30.20S
ELKO           SUNNY     69  45  41 CALM      30.10S
POCATELLO, ID  SUNNY     71  45  39 CALM      30.10S
BURLEY         MOSUNNY   71  47  42 SE9       30.03S
EVANSTON, WY   MOSUNNY   60  42  51 SW8       30.27S
ROCK SPRINGS   SUNNY     57  42  57 CALM      30.28S
KEMMERER       MOSUNNY   55  41  58 S3        30.30S

$$


USA.gov is the U.S. government's official web portal to all federal, state and local government web resources and services.